Weather History for Batman, Turkey

Change the Weather History Date:

Thursday, October 24, 2013

  Actual Average (LTCC) Record (LTCC)
Temperature  
Mean Temperature 62 °F -  
Max Temperature 77 °F 70 °F 82 °F (2003)
Min Temperature 46 °F 46 °F 37 °F (2004)
Degree Days  
Heating Degree Days 4    
Growing Degree Days 12 (Base 50)    
Moisture  
Dew Point 31 °F    
Average Humidity 34    
Maximum Humidity 54    
Minimum Humidity 13    
Precipitation  
Precipitation 0.00 in - - ()
Sea Level Pressure  
Sea Level Pressure 30.03 in    
Wind  
Wind Speed 6 mph ()    
Max Wind Speed 16 mph    
Max Gust Speed -    
Visibility 6.2 miles    
Events      
Averages and records for this station are not official NWS values.
T = Trace of Precipitation, MM = Missing Value Source: Averaged Metar Reports

Daily Weather History Graph

Daily Weather History Graph

Search for Another Location

Airport:

Trip Planner

Search our weather history database for the weather conditions in past years. The results will help you decide how hot, cold, wet, or windy it might be!

Date:

Astronomy

Oct. 24, 2013 Rise Set
Actual Time 6:32 AM EEST 5:26 PM EEST
Civil Twilight 6:05 AM EEST 5:52 PM EEST
Nautical Twilight 5:35 AM EEST 6:23 PM EEST
Astronomical Twilight 5:04 AM EEST 6:54 PM EEST
Moon 9:33 PM EEST (10/24) 11:15 AM EEST (10/24)
Length of Visible Light 11h 46m
Length of Day
10h 53m
Waning Gibbous, 74% of the Moon is Illuminated
Oct 24
Waning Gibbous
Oct 27
Last Quarter
Nov 3
New
Nov 10
First Quarter
Nov 17
Full

Hourly Weather History & Observations

Time (EEST) Temp. Windchill Dew Point Humidity Pressure Visibility Wind Dir Wind Speed Gust Speed Precip Events Conditions
12:20 AM 48.2 °F - 26.6 °F 43% 29.98 in - NNE 3.5 mph - N/A   Clear
12:50 AM 48.2 °F - 26.6 °F 43% 29.98 in - NNE 4.6 mph - N/A   Clear
1:20 AM 48.2 °F - 24.8 °F 40% 29.98 in - ENE 4.6 mph - N/A   Clear
1:50 AM 46.4 °F 44.3 °F 23.0 °F 40% 29.98 in - NNE 4.6 mph - N/A   Clear
2:20 AM 46.4 °F 44.3 °F 26.6 °F 46% 29.98 in - NE 4.6 mph - N/A   Clear
2:50 AM 48.2 °F - 24.8 °F 40% 29.98 in 6.2 mi Variable 2.3 mph - N/A   Partly Cloudy
3:20 AM 46.4 °F - 26.6 °F 46% 29.98 in 6.2 mi SSE 2.3 mph - N/A   Scattered Clouds
3:50 AM 48.2 °F - 26.6 °F 43% 29.98 in 6.2 mi WNW 1.2 mph - N/A   Scattered Clouds
4:20 AM 48.2 °F - 26.6 °F 43% 29.98 in 6.2 mi Variable 2.3 mph - N/A   Scattered Clouds
4:50 AM 48.2 °F - 26.6 °F 43% 29.98 in 6.2 mi Variable 2.3 mph - N/A   Mostly Cloudy
5:20 AM 48.2 °F - 26.6 °F 43% 29.98 in 6.2 mi South 3.5 mph - N/A   Mostly Cloudy
5:50 AM 48.2 °F - 26.6 °F 43% 29.98 in 6.2 mi Variable 2.3 mph - N/A   Mostly Cloudy
6:20 AM 48.2 °F - 32.0 °F 54% 30.01 in 6.2 mi Variable 3.5 mph - N/A   Mostly Cloudy
6:50 AM 48.2 °F - 26.6 °F 43% 30.01 in 6.2 mi South 6.9 mph - N/A   Mostly Cloudy
7:20 AM 50.0 °F - 24.8 °F 37% 30.04 in 6.2 mi SW 5.8 mph - N/A   Mostly Cloudy
7:50 AM 51.8 °F - 24.8 °F 35% 30.04 in 6.2 mi South 3.5 mph - N/A   Mostly Cloudy
8:20 AM 53.6 °F - 28.4 °F 38% 30.04 in 6.2 mi SW 4.6 mph - N/A   Mostly Cloudy
8:50 AM 53.6 °F - 26.6 °F 35% 30.04 in 6.2 mi SW 5.8 mph - N/A   Mostly Cloudy
9:20 AM 57.2 °F - 26.6 °F 31% 30.06 in 6.2 mi SSW 4.6 mph - N/A   Mostly Cloudy
9:50 AM 60.8 °F - 30.2 °F 31% 30.06 in 6.2 mi South 3.5 mph - N/A   Mostly Cloudy
10:20 AM 62.6 °F - 30.2 °F 30% 30.06 in 6.2 mi WSW 5.8 mph - N/A   Mostly Cloudy
10:50 AM 68.0 °F - 33.8 °F 28% 30.04 in 6.2 mi Variable 1.2 mph - N/A   Mostly Cloudy
11:20 AM 71.6 °F - 33.8 °F 25% 30.04 in 6.2 mi ENE 9.2 mph - N/A   Mostly Cloudy
11:50 AM 73.4 °F - 33.8 °F 23% 30.04 in 6.2 mi NE 15.0 mph - N/A   Mostly Cloudy
12:20 PM 75.2 °F - 33.8 °F 22% 30.01 in 6.2 mi NE 13.8 mph - N/A   Scattered Clouds
12:50 PM 73.4 °F - 33.8 °F 23% 30.01 in 6.2 mi NE 13.8 mph - N/A   Mostly Cloudy
1:20 PM 77.0 °F - 32.0 °F 19% 30.01 in 6.2 mi ENE 9.2 mph - N/A   Mostly Cloudy
1:50 PM 77.0 °F - 32.0 °F 19% 30.01 in 6.2 mi NE 13.8 mph - N/A   Scattered Clouds
2:20 PM 77.0 °F - 26.6 °F 16% 30.01 in 6.2 mi NE 11.5 mph - N/A   Scattered Clouds
2:50 PM 77.0 °F - 23.0 °F 13% 30.01 in 6.2 mi East 12.7 mph - N/A   Partly Cloudy
3:20 PM 75.2 °F - 28.4 °F 18% 30.01 in 6.2 mi East 9.2 mph - N/A   Partly Cloudy
3:50 PM 75.2 °F - 30.2 °F 19% 30.01 in 6.2 mi Variable 4.6 mph - N/A   Partly Cloudy
4:20 PM 73.4 °F - 33.8 °F 23% 30.01 in 6.2 mi NNE 16.1 mph - N/A   Partly Cloudy
4:50 PM 71.6 °F - 33.8 °F 25% 30.01 in 6.2 mi NNE 13.8 mph - N/A   Partly Cloudy
5:20 PM 69.8 °F - 33.8 °F 27% 30.04 in 6.2 mi NNE 15.0 mph - N/A   Scattered Clouds
5:50 PM 66.2 °F - 33.8 °F 30% 30.04 in 6.2 mi NE 12.7 mph - N/A   Scattered Clouds
6:20 PM 64.4 °F - 33.8 °F 32% 30.04 in 6.2 mi NE 11.5 mph - N/A   Partly Cloudy
6:50 PM 62.6 °F - 35.6 °F 37% 30.04 in - NNE 9.2 mph - N/A   Clear
7:20 PM 62.6 °F - 35.6 °F 37% 30.06 in - NNE 9.2 mph - N/A   Clear
7:50 PM 60.8 °F - 35.6 °F 39% 30.06 in - NNE 10.4 mph - N/A   Clear
8:20 PM 60.8 °F - 35.6 °F 39% 30.06 in - North 9.2 mph - N/A   Clear
8:50 PM 60.8 °F - 35.6 °F 39% 30.09 in - NNE 9.2 mph - N/A   Clear
9:20 PM 57.2 °F - 35.6 °F 44% 30.09 in - NNE 6.9 mph - N/A   Clear
9:50 PM 62.6 °F - 35.6 °F 37% 30.09 in - NE 12.7 mph - N/A   Clear
10:20 PM 60.8 °F - 35.6 °F 39% 30.09 in - NE 10.4 mph - N/A   Clear
10:50 PM 60.8 °F - 37.4 °F 42% 30.09 in - NE 11.5 mph - N/A   Clear
11:20 PM 60.8 °F - 35.6 °F 39% 30.09 in - NE 11.5 mph - N/A   Clear
11:50 PM 60.8 °F - 35.6 °F 39% 30.09 in - NE 10.4 mph - N/A   Clear